Location: Chuathbaluk
(61.5726°N, 159.2454°W)
Time: 14:07:48
(UTC+00:00)

XW-2F - Pass Details

Date: 26 January 2021
Orbit: 500 x 520 km, 97.5° (Epoch: 01 March)

Event Time Altitude Azimuth Distance (km) Brightness Sun altitude
Rises 17:33:31 0° 15° (NNE) 2,665 ? -11.2°
Reaches altitude 10° 17:35:38 10° 13° (NNE) 1,773 ? -10.9°
Maximum altitude 17:39:26 66° 292° (WNW) 579 ? -10.5°
Drops below altitude 10° 17:43:12 10° 210° (SSW) 1,760 ? -10.1°
Sets 17:45:18 0° 207° (SSW) 2,643 ? -9.8°
